Regional Weather Roundup
Issued by NWS

Home | Current Version | Previous Version | Text Only | Print | Product List | Glossary Off
Versions: 1 2 3 4 5 6 7 8 9 10 11 12 13 14 15 16 17 18 19 20 21 22 23 24 25 26 27 28 29 30 31 32 33 34 35 36 37 38 39 40 41 42 43 44 45 46 47 48 49 50

000
ASUS44 KMEG 010000
RWRTN
TENNESSEE HOURLY STATE WEATHER ROUNDUP
NATIONAL WEATHER SERVICE MEMPHIS TN
700 PM CDT TUE MAY 31 2016

TNZ002-004-019-021-049-052-054-088>092-010100-
WEST TENNESSEE

CITY           SKY/WX    TMP DP  RH WIND       PRES   REMARKS
MEMPHIS INTL   MOSUNNY   83  66  56 SE9       29.88R
NWS MEMPHIS      N/A     84 N/A N/A MISG        N/A
JACKSON        MOSUNNY   82  66  58 S7        29.88S
DYERSBURG      SUNNY     82  64  54 S3        29.87S
UNION CITY     MOSUNNY   81  66  61 S3        29.86S
PARIS          MOSUNNY   81  64  57 E5        29.89S
LEXINGTON      SUNNY     81  64  57 CALM      29.89R
$$

TNZ008-025-027-028-033-062-065-066-010100-
NORTH MIDDLE TENNESSEE

CITY           SKY/WX    TMP DP  RH WIND       PRES   REMARKS
NASHVILLE      PTCLDY    86  58  38 NE7       29.90R
CLARKSVILLE    SUNNY     83  63  50 CALM      29.89S
COOKEVILLE     CLEAR     82  66  57 NE6       29.92S
CROSSVILLE     PTCLDY    78  65  63 N5        29.98S
$$

TNZ061-075-076-078-094-096-097-010100-
SOUTH MIDDLE TENNESSEE

CITY           SKY/WX    TMP DP  RH WIND       PRES   REMARKS
TULLAHOMA      CLEAR     84  54  34 NE3       29.92S
WINCHESTER     CLEAR     84  59  42 CALM      29.91S
MCMINNVILLE    CLEAR     84  63  48 N6        29.92S
COLUMBIA       SUNNY     86  66  51 S3        29.89R
SHELBYVILLE    CLEAR     88  63  42 NE5       29.91S
$$

TNZ017-018-042-046-047-010100-
NORTHEAST TENNESSEE

CITY           SKY/WX    TMP DP  RH WIND       PRES   REMARKS
TRI CITIES     MOCLDY    76  60  57 CALM      29.97R
$$

TNZ012-013-036-069-073-074-010100-
CENTRAL EAST TENNESSEE

CITY           SKY/WX    TMP DP  RH WIND       PRES   REMARKS
KNOXVILLE      MOCLDY    83  60  45 NE5       29.91R
OAK RIDGE      CLEAR     84  62  47 CALM      29.94R
GATLINBURG     PTCLDY    79  59  50 SE9       29.93R
$$

TNZ083-085-099-010100-
SOUTHEAST TENNESSEE

CITY           SKY/WX    TMP DP  RH WIND       PRES   REMARKS
CHATTANOOGA    PTCLDY    89  56  32 NE3       29.89R
$$

SKY/WX REPORTED AS FAIR MEANS FEW OR NO CLOUDS BELOW
12 THOUSAND FEET.





USA.gov is the U.S. government's official web portal to all federal, state and local government web resources and services.